Location: S�tio Afonso Gruber
(26.1760°S, 49.5250°W)
Time: 21:40:14
(UTC+00:00)

Cosmos 1844 Rocket - Pass Details

Date: 03 October 2020
Orbit: 823 x 846 km, 71.0° (Epoch: 26 October)

Event Time Altitude Azimuth Distance (km) Brightness Sun altitude
Rises 07:37:32 0° 349° (N) 3,388 5.6 -18.0°
Reaches altitude 10° 07:39:59 10° 351° (N) 2,459 4.9 -17.4°
Maximum altitude 07:45:35 69° 74° (ENE) 907 3.0 -16.2°
Drops below altitude 10° 07:51:15 10° 156° (SSE) 2,477 5.6 -15.0°
Sets 07:53:42 0° 158° (SSE) 3,414 6.4 -14.4°
